SOYUZ-MS 18

Last updated on Mon Oct 11 2021 23:04:52 GMT+0000 (Coordinated Universal Time)

1 48159U 21029A 21284.56132551 .00002909 00000-0 61006-4 0 9993 2 48159 51.6421 127.2980 0004165 80.9757 320.6996 15.48970684306634

Satellite not in orbit

SOYUZ-MS 18